Location: Unspecified
(42.0334°N, 93.6656°W)
Time: 02:11:15
(UTC-06:00)

Amateur Radio Satellites - All Passes

Search period start: 04 December 2016 01:41
Search period end: 05 December 2016 01:41
Location: Unspecified, 42.0334°N, 93.6656°W

Satellite Date Start Highest point End Downlink Frequencies (MHz)
Time Altitude Azimuth
Gurwin Techsat 1B 04 Dec 01:44:21 01:49:17 38° 98° (E) 01:54:11 435.225
O/OREOS (USA 219) 04 Dec 01:57:11 02:01:30 43° 63° (ENE) 02:05:45 437.305
ITUPSAT 1 04 Dec 01:58:35 02:03:22 78° 75° (ENE) 02:08:10 437.325
Oscar 19 04 Dec 02:07:55 02:13:05 68° 287° (WNW) 02:18:14 437.125/150
KKS-1 04 Dec 02:14:35 02:16:26 12° 61° (ENE) 02:18:16 437.445
PHONESAT 2.4 04 Dec 02:23:38 02:26:08 37° 166° (SSE) 02:28:39 2401.200-2431.200
ITAMSAT 1 04 Dec 02:31:34 02:35:42 23° 94° (E) 02:39:47 435.822/435.867
Cosmos 2499 04 Dec 02:34:19 02:41:50 33° 291° (WNW) 02:49:40 435.465 / 435.565
AO-85 04 Dec 02:38:47 02:43:42 66° 120° (ESE) 02:48:17 145.980
AUBIESAT-1 04 Dec 02:41:39 02:44:49 22° 262° (W) 02:48:11 437.475
M-CUBED/EXP-1 PRIME 04 Dec 02:53:07 02:55:12 14° 266° (W) 02:57:23 437.505
AO-7 04 Dec 02:54:12 03:01:13 29° 95° (E) 03:08:10 29.400- 29.500
CUBESAT XI-V 04 Dec 02:59:46 03:01:30 12° 61° (ENE) 03:03:15 437.345
MOZHAYETS 4 04 Dec 03:00:19 03:04:55 79° 76° (ENE) 03:09:31
SWISSCUBE 04 Dec 03:07:36 03:11:05 20° 267° (W) 03:14:34 437.505
BEESAT 04 Dec 03:11:53 03:15:23 20° 267° (W) 03:18:54 436.000
GONETS M04 04 Dec 03:17:10 03:23:24 21° 297° (WNW) 03:29:39
Gurwin Techsat 1B 04 Dec 03:24:34 03:29:04 29° 294° (WNW) 03:33:34 435.225
O/OREOS (USA 219) 04 Dec 03:37:30 03:40:32 18° 260° (W) 03:43:32 437.305
ITUPSAT 1 04 Dec 03:40:21 03:41:44 11° 271° (W) 03:43:08 437.325
SO-50 04 Dec 03:47:53 03:50:01 13° 35° (NE) 03:52:09 436.795
KKS-1 04 Dec 03:47:55 03:52:23 73° 258° (WSW) 03:56:52 437.445
PHONESAT 2.4 04 Dec 03:58:37 04:01:15 62° 182° (S) 04:03:53 2401.200-2431.200
STARS 04 Dec 04:00:30 04:04:54 72° 75° (ENE) 04:09:21 437.465
ITAMSAT 1 04 Dec 04:10:26 04:15:20 43° 291° (WNW) 04:20:11 435.822/435.867
AO-85 04 Dec 04:21:04 04:24:30 19° 317° (NW) 04:27:46 145.980
CUBESAT XI-V 04 Dec 04:33:39 04:38:14 77° 258° (WSW) 04:42:51 437.345
MOZHAYETS 4 04 Dec 04:42:22 04:42:37 10° 272° (W) 04:42:52
AO-7 04 Dec 04:46:12 04:54:28 65° 293° (WNW) 05:02:43 29.400- 29.500
GOMX 1 04 Dec 04:51:50 04:55:11 16° 89° (E) 04:58:33 467.674
HORYU 2 04 Dec 04:53:43 04:57:16 23° 95° (E) 05:00:47 437.375
YUBILEINY 04 Dec 04:54:11 05:00:28 21° 62° (ENE) 05:06:44 435.215
BRITE-PL 04 Dec 05:02:35 05:07:44 45° 98° (E) 05:13:05 437.365/2234.400
BEESAT 3 04 Dec 05:12:12 05:15:38 31° 115° (ESE) 05:19:08 437.485
DOVE 4 04 Dec 05:16:00 05:17:12 11° 86° (E) 05:18:22 437.250
LilacSat-2 04 Dec 05:22:58 05:24:18 12° 90° (E) 05:25:38 437.200
Cosmos 2491 04 Dec 05:26:06 05:29:53 14° 74° (ENE) 05:33:39 435.465 / 435.565
SO-50 04 Dec 05:26:46 05:31:19 74° 56° (ENE) 05:35:46 436.795
CUTE-I 04 Dec 05:28:35 05:32:03 17° 91° (E) 05:35:30 437.470
Cosmos 2504 04 Dec 05:33:39 05:39:18 18° 59° (ENE) 05:44:46 435.465 / 435.565
PHONESAT 2.4 04 Dec 05:33:56 05:36:20 30° 198° (SSW) 05:38:43 2401.200-2431.200
BEESAT 2 04 Dec 05:36:34 05:39:51 26° 114° (ESE) 05:43:12 435.950
STRAND 1 04 Dec 05:38:53 05:42:49 23° 64° (ENE) 05:46:44 437.568
STARS 04 Dec 05:40:46 05:41:44 11° 271° (W) 05:42:42 437.465
Cubesat XI-IV 04 Dec 05:52:56 05:57:32 29° 95° (E) 06:02:06 437.490
NOAA 15 04 Dec 05:57:53 06:02:43 35° 97° (E) 06:07:32 137.62
RS-15 04 Dec 06:02:54 06:10:34 20° 97° (E) 06:18:24 29.354- 29.394
GOMX 1 04 Dec 06:28:16 06:33:42 70° 285° (WNW) 06:39:09 467.674
HORYU 2 04 Dec 06:29:53 06:33:52 33° 291° (WNW) 06:37:48 437.375
AO-7 04 Dec 06:41:06 06:45:40 16° 314° (NW) 06:50:14 29.400- 29.500
BRITE-PL 04 Dec 06:41:34 06:45:57 26° 293° (WNW) 06:50:30 437.365/2234.400
CINEMA 3 04 Dec 06:48:46 06:52:30 22° 92° (E) 06:56:06 145.822/145.860
YUBILEINY 04 Dec 06:49:36 06:58:28 87° 265° (W) 07:07:20 435.215
BEESAT 3 04 Dec 06:50:00 06:53:17 25° 313° (NW) 06:56:36 437.485
DOVE 4 04 Dec 06:50:14 06:55:36 87° 103° (ESE) 07:00:48 437.250
LilacSat-2 04 Dec 06:55:14 06:58:53 47° 287° (WNW) 07:02:30 437.200
NOAA 18 04 Dec 06:57:23 07:02:56 70° 103° (ESE) 07:08:26 137.9125
AIST 1 04 Dec 07:00:06 07:04:25 52° 79° (E) 07:08:42
CUTE-I 04 Dec 07:07:15 07:12:30 61° 288° (WNW) 07:17:43 437.470
SO-50 04 Dec 07:09:26 07:11:08 12° 252° (WSW) 07:12:48 436.795
BEESAT 2 04 Dec 07:14:03 07:17:33 29° 311° (NW) 07:21:06 435.950
Cosmos 2491 04 Dec 07:16:20 07:25:04 74° 94° (E) 07:33:48 435.465 / 435.565
STRAND 1 04 Dec 07:16:44 07:21:40 47° 261° (W) 07:26:38 437.568
CUBEBUG 2 04 Dec 07:23:38 07:24:48 11° 88° (E) 07:25:59 437.445
Cosmos 2504 04 Dec 07:25:18 07:34:14 81° 82° (E) 07:42:38 435.465 / 435.565
HO-68 04 Dec 07:31:03 07:37:48 41° 98° (E) 07:44:30 435.675
Cubesat XI-IV 04 Dec 07:32:46 07:37:39 37° 292° (WNW) 07:42:30 437.490
CUTE 1.7 + AOD 2 04 Dec 07:33:49 07:37:42 35° 97° (E) 07:41:34 437.475
NOAA 15 04 Dec 07:37:50 07:42:22 30° 294° (WNW) 07:46:54 137.62
AIST 2 04 Dec 07:45:16 07:47:48 16° 110° (ESE) 07:50:20 435.215
CANX-2 04 Dec 07:51:09 07:55:21 66° 101° (E) 07:59:32 2200.000
AAUSAT CUBESAT 2 04 Dec 08:08:07 08:11:45 29° 96° (E) 08:15:24 437.432
UWE-3 04 Dec 08:08:51 08:12:15 22° 93° (E) 08:15:34 435.000/436.395/437.385
RS-15 04 Dec 08:09:14 08:20:58 81° 119° (ESE) 08:33:18 29.354- 29.394
GOMX 1 04 Dec 08:09:49 08:10:47 10° 303° (WNW) 08:11:46 467.674
UNISAT 6 04 Dec 08:19:28 08:22:05 15° 63° (ENE) 08:24:42 437.425
SEEDS 04 Dec 08:21:09 08:25:21 84° 102° (ESE) 08:29:32 437.485
PRISM 04 Dec 08:24:27 08:28:28 66° 74° (ENE) 08:32:32 437.425
CINEMA 3 04 Dec 08:25:14 08:29:47 40° 290° (WNW) 08:34:09 145.822/145.860
DOVE 4 04 Dec 08:29:56 08:32:28 14° 301° (WNW) 08:35:01 437.250
COMPASS 1 04 Dec 08:35:45 08:39:55 82° 104° (ESE) 08:44:05 437.405
AIST 1 04 Dec 08:39:20 08:41:31 14° 276° (W) 08:43:41
NOAA 18 04 Dec 08:39:22 08:43:00 18° 301° (WNW) 08:46:36 137.9125
TIGRISAT 04 Dec 08:48:37 08:52:32 27° 68° (ENE) 08:56:26 435.000
YUBILEINY 04 Dec 08:48:42 08:53:54 17° 284° (WNW) 08:59:08 435.215
ANTELSAT 04 Dec 08:49:24 08:53:24 28° 68° (ENE) 08:57:23 437.575/2403.000
ZACube-1 04 Dec 08:54:22 08:58:26 42° 98° (E) 09:02:24 437.345
CUBEBUG 2 04 Dec 08:57:31 09:01:57 67° 286° (WNW) 09:06:11 437.445
JAS-2 04 Dec 08:59:07 09:01:12 12° 57° (ENE) 09:03:13 435.910
FUNcube-1 04 Dec 09:03:17 09:07:25 49° 99° (E) 09:11:27 145.935
CUTE 1.7 + AOD 2 04 Dec 09:10:13 09:13:18 20° 293° (WNW) 09:16:24 437.475
Cosmos 2491 04 Dec 09:15:52 09:22:46 25° 295° (WNW) 09:29:42 435.465 / 435.565
HO-68 04 Dec 09:18:52 09:25:27 40° 296° (WNW) 09:32:02 435.675
Cosmos 2504 04 Dec 09:20:21 09:26:28 22° 282° (WNW) 09:32:24 435.465 / 435.565
AIST 2 04 Dec 09:21:52 09:25:51 49° 307° (NW) 09:29:55 435.215
DELFI C3 04 Dec 09:25:25 09:28:54 29° 96° (E) 09:32:23 145.870
CANX-2 04 Dec 09:29:05 09:30:38 12° 298° (WNW) 09:32:11 2200.000
CUSAT 1 04 Dec 09:29:20 09:32:31 36° 98° (E) 09:35:11 437.405
Oscar 11 04 Dec 09:36:36 09:40:54 72° 284° (WNW) 09:45:10 145.826/435.025
QB50P1 04 Dec 09:43:31 09:45:04 12° 62° (ENE) 09:46:37 145.935-145.965
AAUSAT CUBESAT 2 04 Dec 09:43:49 09:47:05 23° 292° (WNW) 09:50:21 437.432
UWE-3 04 Dec 09:44:54 09:48:46 32° 291° (WNW) 09:52:32 435.000/436.395/437.385
DUCHIFAT 1 04 Dec 09:48:53 09:50:16 11° 61° (ENE) 09:51:41 145.980
UNISAT 6 04 Dec 09:53:36 09:58:16 64° 259° (WSW) 10:02:55 437.425
DANDE 04 Dec 09:53:46 09:57:42 24° 96° (E) 10:00:54 436.750
POPSAT HIP 1 04 Dec 10:03:11 10:06:10 19° 65° (ENE) 10:09:10 437.405
RS-15 04 Dec 10:23:57 10:34:54 39° 326° (NW) 10:46:13 29.354- 29.394
TIGRISAT 04 Dec 10:24:51 10:29:05 33° 264° (W) 10:33:18 435.000
ANTELSAT 04 Dec 10:25:52 10:30:00 30° 264° (W) 10:34:09 437.575/2403.000
ZACube-1 04 Dec 10:31:34 10:34:22 17° 295° (WNW) 10:37:08 437.345
Cosmos 2499 04 Dec 10:32:06 10:38:31 22° 62° (ENE) 10:44:36 435.465 / 435.565
JAS-2 04 Dec 10:38:54 10:45:30 73° 74° (ENE) 10:51:20 435.910
HUMSAT D 04 Dec 10:40:35 10:44:39 72° 285° (WNW) 10:48:42 437.325/437.525
FUNcube-1 04 Dec 10:40:47 10:43:13 15° 296° (WNW) 10:45:39 145.935
BUGSAT 1 04 Dec 10:52:09 10:55:21 21° 66° (ENE) 10:58:35 437.445
NANOSAT C BR1 04 Dec 10:57:50 11:02:04 68° 75° (ENE) 11:06:19 145.865
DELFI C3 04 Dec 11:00:29 11:03:33 22° 292° (WNW) 11:06:36 145.870
QB50P2 04 Dec 11:01:38 11:05:55 87° 73° (ENE) 11:10:14 145.880/145.840
POLYITAN 1 04 Dec 11:02:12 11:06:31 83° 73° (ENE) 11:10:50 437.675
AO-85 04 Dec 11:10:19 11:14:15 56° 54° (NE) 11:18:03 145.980
QB50P1 04 Dec 11:15:59 11:20:14 70° 258° (WSW) 11:24:32 145.935-145.965
ESTCUBE 1 04 Dec 11:21:03 11:25:21 42° 99° (E) 11:29:37 437.505/2401.250
DUCHIFAT 1 04 Dec 11:21:07 11:25:22 72° 258° (WSW) 11:29:38 145.980
50 SAT 04 Dec 11:25:22 11:27:01 13° 92° (E) 11:28:39 437.505
GONETS M04 04 Dec 11:26:38 11:34:51 43° 73° (ENE) 11:43:02
SPROUT 04 Dec 11:27:02 11:28:55 13° 90° (E) 11:30:46 437.525
DANDE 04 Dec 11:36:23 11:40:18 25° 283° (WNW) 11:43:29 436.750
AISAT 04 Dec 11:36:30 11:40:17 26° 95° (E) 11:44:03 437.250
POPSAT HIP 1 04 Dec 11:37:36 11:41:38 41° 262° (W) 11:45:43 437.405
PCSat 04 Dec 11:42:54 11:48:06 50° 114° (ESE) 11:53:20 145.827
Oscar 19 04 Dec 11:47:18 11:51:17 23° 64° (ENE) 11:55:17 437.125/150
CUBEBUG 1 04 Dec 12:07:26 12:11:55 82° 105° (ESE) 12:16:20 437.445
VELOX 1 04 Dec 12:13:05 12:17:32 62° 101° (ESE) 12:21:56 145.980
Cosmos 2499 04 Dec 12:24:04 12:32:47 82° 264° (W) 12:40:51 435.465 / 435.565
BUGSAT 1 04 Dec 12:26:39 12:30:30 34° 263° (W) 12:34:24 437.445
JAS-2 04 Dec 12:26:48 12:30:55 17° 268° (W) 12:34:49 435.910
DX 1 04 Dec 12:33:02 12:37:22 53° 101° (E) 12:41:39 434.975-435.025
NANOSAT C BR1 04 Dec 12:37:23 12:38:14 10° 271° (W) 12:39:05 145.865
RS-15 04 Dec 12:42:52 12:52:18 24° 360° (N) 13:01:48 29.354- 29.394
UKube-1 04 Dec 12:44:05 12:48:21 52° 100° (E) 12:52:34 .
AO-85 04 Dec 12:52:35 12:54:06 12° 251° (WSW) 12:55:36 145.980
TISAT 1 04 Dec 12:54:57 12:57:59 19° 93° (E) 13:00:59 437.305
50 SAT 04 Dec 12:57:10 13:00:29 38° 288° (WNW) 13:03:48 437.505
ESTCUBE 1 04 Dec 12:58:35 13:01:51 20° 295° (WNW) 13:05:07 437.505/2401.250
SPROUT 04 Dec 13:00:58 13:05:12 57° 287° (WNW) 13:09:23 437.525
Gurwin Techsat 1B 04 Dec 13:05:40 13:10:55 63° 72° (ENE) 13:16:10 435.225
AISAT 04 Dec 13:12:49 13:16:42 30° 292° (WNW) 13:20:35 437.250
GONETS M04 04 Dec 13:23:37 13:31:35 42° 273° (W) 13:39:35
Oscar 19 04 Dec 13:25:27 13:30:18 44° 261° (W) 13:35:14 437.125/150
PCSat 04 Dec 13:27:12 13:31:45 27° 313° (NW) 13:36:20 145.827
BEESAT 3 04 Dec 13:28:36 13:31:53 24° 46° (NE) 13:35:09 437.485
SWISSCUBE 04 Dec 13:31:20 13:32:00 10° 89° (E) 13:32:40 437.505
BEESAT 04 Dec 13:35:47 13:36:15 10° 89° (E) 13:36:43 436.000
CUBEBUG 1 04 Dec 13:46:24 13:47:30 11° 300° (WNW) 13:48:37 437.445
ITAMSAT 1 04 Dec 13:49:39 13:54:27 38° 68° (ENE) 13:59:15 435.822/435.867
VELOX 1 04 Dec 13:51:07 13:53:28 14° 298° (WNW) 13:55:48 145.980
AO-7 04 Dec 13:53:30 14:01:07 42° 61° (ENE) 14:08:47 29.400- 29.500
BEESAT 2 04 Dec 13:53:42 13:56:50 21° 45° (NE) 13:59:58 435.950
ITUPSAT 1 04 Dec 13:59:36 14:02:58 19° 93° (E) 14:06:18 437.325
DX 1 04 Dec 14:10:30 14:13:06 16° 297° (WNW) 14:15:42 434.975-435.025
AUBIESAT-1 04 Dec 14:18:52 14:22:42 25° 99° (E) 14:26:24 437.475
Cosmos 2499 04 Dec 14:19:45 14:24:22 16° 285° (WNW) 14:28:51 435.465 / 435.565
UKube-1 04 Dec 14:21:23 14:23:57 16° 297° (WNW) 14:26:31 .
M-CUBED/EXP-1 PRIME 04 Dec 14:29:05 14:33:31 40° 103° (ESE) 14:37:48 437.505
TISAT 1 04 Dec 14:29:50 14:33:44 37° 289° (WNW) 14:37:36 437.305
Gurwin Techsat 1B 04 Dec 14:47:55 14:51:17 17° 269° (W) 14:54:39 435.225
MOZHAYETS 4 04 Dec 14:55:55 14:58:59 18° 92° (E) 15:02:03
RS-15 04 Dec 14:58:25 15:09:45 39° 34° (NE) 15:20:50 29.354- 29.394
SWISSCUBE 04 Dec 15:05:36 15:10:22 82° 284° (WNW) 15:15:06 437.505
BEESAT 3 04 Dec 15:05:57 15:09:35 34° 244° (WSW) 15:13:11 437.485
BEESAT 04 Dec 15:09:51 15:14:37 83° 286° (WNW) 15:19:22 436.000
ITAMSAT 1 04 Dec 15:29:35 15:33:58 27° 265° (W) 15:38:23 435.822/435.867
BEESAT 2 04 Dec 15:30:59 15:34:48 41° 243° (WSW) 15:38:35 435.950
ITUPSAT 1 04 Dec 15:36:28 15:41:01 46° 289° (WNW) 15:45:32 437.325
KKS-1 04 Dec 15:39:09 15:42:32 21° 94° (E) 15:45:52 437.445
AO-7 04 Dec 15:45:55 15:53:46 46° 259° (W) 16:01:45 29.400- 29.500
STARS 04 Dec 15:51:22 15:53:16 12° 90° (E) 15:55:10 437.465
ISS 04 Dec 15:51:40 15:52:57 12° 130° (SE) 15:54:14 145.825
HORYU 2 04 Dec 15:52:05 15:55:40 24° 66° (ENE) 15:59:16 437.375
AUBIESAT-1 04 Dec 15:52:56 15:57:06 35° 296° (WNW) 16:01:11 437.475
GOMX 1 04 Dec 16:01:09 16:03:49 15° 61° (ENE) 16:06:36 467.674
M-CUBED/EXP-1 PRIME 04 Dec 16:03:57 16:07:42 24° 299° (WNW) 16:11:23 437.505
AIST 2 04 Dec 16:05:09 16:07:51 16° 41° (NE) 16:10:34 435.215
O/OREOS (USA 219) 04 Dec 16:09:37 16:14:01 47° 107° (ESE) 16:18:24 437.305
BRITE-PL 04 Dec 16:14:30 16:18:33 44° 71° (ENE) 16:22:53 437.365/2234.400
DOVE 4 04 Dec 16:21:59 16:23:30 11° 58° (ENE) 16:25:03 437.250
CUBESAT XI-V 04 Dec 16:30:06 16:33:58 25° 94° (E) 16:37:50 437.345
MOZHAYETS 4 04 Dec 16:32:01 16:36:22 45° 288° (WNW) 16:40:42
NOAA 18 04 Dec 16:45:38 16:49:34 20° 61° (ENE) 16:53:30 137.9125
CUTE-I 04 Dec 16:50:19 16:54:58 31° 66° (ENE) 16:59:37 437.470
BEESAT 04 Dec 16:51:17 16:51:35 10° 302° (WNW) 16:51:54 436.000
RS-15 04 Dec 17:11:19 17:23:43 82° 241° (WSW) 17:35:41 29.354- 29.394
KKS-1 04 Dec 17:15:02 17:19:12 38° 290° (WNW) 17:23:19 437.445
Cubesat XI-IV 04 Dec 17:15:03 17:20:13 50° 70° (ENE) 17:25:25 437.490
NOAA 15 04 Dec 17:18:14 17:23:22 59° 72° (ENE) 17:28:32 137.62
STARS 04 Dec 17:25:38 17:30:01 61° 287° (WNW) 17:34:21 437.465
ISS 04 Dec 17:25:42 17:29:00 82° 328° (NNW) 17:32:18 145.825
Cosmos 2491 04 Dec 17:26:32 17:34:29 37° 71° (ENE) 17:42:21 435.465 / 435.565
HORYU 2 04 Dec 17:27:58 17:32:03 34° 263° (W) 17:36:08 437.375
GOMX 1 04 Dec 17:36:52 17:41:18 61° 260° (W) 17:46:07 467.674
LilacSat-2 04 Dec 17:36:52 17:40:43 83° 77° (ENE) 17:44:35 437.200
AIST 2 04 Dec 17:42:34 17:46:47 69° 239° (WSW) 17:50:58 435.215
CINEMA 3 04 Dec 17:50:20 17:54:09 23° 65° (ENE) 17:58:01 145.822/145.860
O/OREOS (USA 219) 04 Dec 17:50:23 17:53:40 19° 305° (NW) 17:56:58 437.305
BRITE-PL 04 Dec 17:54:43 17:57:23 16° 270° (W) 18:00:09 437.365/2234.400
DOVE 4 04 Dec 17:55:33 18:00:17 88° 74° (ENE) 18:05:21 437.250
YUBILEINY 04 Dec 17:57:14 18:03:26 22° 79° (E) 18:09:38 435.215
HO-68 04 Dec 18:00:26 18:06:38 33° 61° (ENE) 18:12:51 435.675
CUBESAT XI-V 04 Dec 18:07:12 18:11:22 33° 291° (WNW) 18:15:32 437.345
Cosmos 2504 04 Dec 18:16:22 18:19:23 12° 72° (ENE) 18:22:27 435.465 / 435.565
CUBEBUG 2 04 Dec 18:21:48 18:23:45 12° 61° (ENE) 18:25:41 437.445
NOAA 18 04 Dec 18:24:15 18:29:43 62° 258° (WSW) 18:35:14 137.9125
CUTE 1.7 + AOD 2 04 Dec 18:26:57 18:30:30 27° 69° (ENE) 18:34:02 437.475
CUTE-I 04 Dec 18:30:00 18:34:54 36° 263° (W) 18:39:50 437.470
CANX-2 04 Dec 18:44:00 18:48:04 48° 73° (ENE) 18:52:07 2200.000
Cubesat XI-IV 04 Dec 18:56:28 19:00:33 22° 267° (W) 19:04:38 437.490
AAUSAT CUBESAT 2 04 Dec 18:59:01 19:02:07 21° 67° (ENE) 19:05:15 437.432
NOAA 15 04 Dec 19:00:08 19:03:32 17° 268° (W) 19:06:56 137.62
ISS 04 Dec 19:03:19 19:05:54 20° 345° (NNW) 19:08:29 145.825
UWE-3 04 Dec 19:05:57 19:09:30 22° 66° (ENE) 19:13:01 435.000/436.395/437.385
SEEDS 04 Dec 19:12:51 19:16:56 59° 75° (ENE) 19:21:03 437.485
Cosmos 2491 04 Dec 19:23:14 19:31:29 50° 271° (W) 19:39:43 435.465 / 435.565
RS-15 04 Dec 19:26:06 19:34:13 21° 262° (W) 19:42:12 29.354- 29.394
CINEMA 3 04 Dec 19:26:16 19:30:57 44° 263° (W) 19:35:45 145.822/145.860
COMPASS 1 04 Dec 19:26:29 19:30:30 55° 74° (ENE) 19:34:33 437.405
STRAND 1 04 Dec 19:26:32 19:31:34 57° 101° (E) 19:36:34 437.568
AIST 1 04 Dec 19:29:59 19:33:43 29° 90° (E) 19:37:29
SO-50 04 Dec 19:41:59 19:45:38 22° 112° (ESE) 19:49:16 436.795
HO-68 04 Dec 19:47:08 19:54:03 51° 260° (W) 20:01:03 435.675
ZACube-1 04 Dec 19:50:01 19:54:12 37° 71° (ENE) 19:58:20 437.345
YUBILEINY 04 Dec 19:50:29 19:59:11 77° 279° (W) 20:08:00 435.215
CUBEBUG 2 04 Dec 19:54:56 19:59:41 81° 256° (WSW) 20:04:28 437.445
FUNcube-1 04 Dec 19:58:33 20:02:49 41° 72° (ENE) 20:07:04 145.935
CUSAT 1 04 Dec 19:58:47 20:01:48 25° 77° (ENE) 20:05:28 437.405
Cosmos 2504 04 Dec 20:02:43 20:10:54 68° 92° (E) 20:19:37 435.465 / 435.565
CUTE 1.7 + AOD 2 04 Dec 20:02:44 20:06:16 26° 265° (W) 20:09:49 437.475
DELFI C3 04 Dec 20:12:03 20:14:46 18° 67° (ENE) 20:17:30 145.870
CANX-2 04 Dec 20:21:49 20:24:10 15° 269° (W) 20:26:32 2200.000
PCSat 04 Dec 20:30:14 20:35:27 45° 54° (NE) 20:40:38 145.827
Oscar 11 04 Dec 20:31:13 20:35:33 89° 74° (ENE) 20:39:54 145.826/435.025
AAUSAT CUBESAT 2 04 Dec 20:33:44 20:37:24 31° 263° (W) 20:41:06 437.432
ISS 04 Dec 20:41:09 20:43:18 16° 5° (N) 20:45:26 145.825
UWE-3 04 Dec 20:41:18 20:45:41 40° 262° (W) 20:50:04 435.000/436.395/437.385
SEEDS 04 Dec 20:51:32 20:53:00 12° 270° (W) 20:54:27 437.485
COMPASS 1 04 Dec 21:04:45 21:06:23 12° 270° (W) 21:08:02 437.405
STRAND 1 04 Dec 21:06:48 21:10:17 19° 298° (WNW) 21:13:46 437.568
AIST 1 04 Dec 21:07:53 21:11:19 23° 287° (WNW) 21:14:47
SO-50 04 Dec 21:21:13 21:25:50 47° 309° (NW) 21:30:22 436.795
ZACube-1 04 Dec 21:27:00 21:30:32 22° 266° (W) 21:34:04 437.345
HUMSAT D 04 Dec 21:31:32 21:35:46 80° 76° (ENE) 21:39:58 437.325/437.525
FUNcube-1 04 Dec 21:35:56 21:39:12 19° 267° (W) 21:42:27 145.935
PRISM 04 Dec 21:40:24 21:44:34 79° 284° (WNW) 21:48:42 437.425
CUSAT 1 04 Dec 21:40:51 21:43:36 20° 264° (W) 21:46:50 437.405
UNISAT 6 04 Dec 21:45:34 21:49:15 25° 95° (E) 21:52:50 437.425
DELFI C3 04 Dec 21:45:46 21:49:20 33° 263° (W) 21:52:56 145.870
YUBILEINY 04 Dec 21:52:35 21:57:37 16° 301° (WNW) 22:02:43 435.215
Cosmos 2504 04 Dec 21:58:07 22:05:03 28° 294° (WNW) 22:12:19 435.465 / 435.565
DANDE 04 Dec 22:12:00 22:14:24 26° 263° (W) 22:17:10 436.750
PCSat 04 Dec 22:14:06 22:18:36 27° 252° (WSW) 22:23:05 145.827
TIGRISAT 04 Dec 22:15:37 22:19:55 49° 99° (E) 22:24:06 435.000
ANTELSAT 04 Dec 22:16:39 22:21:00 54° 100° (E) 22:25:13 437.575/2403.000
ISS 04 Dec 22:17:29 22:20:32 33° 24° (NNE) 22:23:35 145.825
ESTCUBE 1 04 Dec 22:20:49 22:24:59 40° 71° (ENE) 22:29:11 437.505/2401.250
SPROUT 04 Dec 22:21:52 22:23:12 11° 61° (ENE) 22:24:32 437.525
AISAT 04 Dec 22:34:15 22:37:52 25° 67° (ENE) 22:41:30 437.250
NANOSAT C BR1 04 Dec 22:44:46 22:45:22 10° 89° (E) 22:45:58 145.865
QB50P2 04 Dec 22:47:45 22:49:54 14° 91° (E) 22:52:02 145.880/145.840
POLYITAN 1 04 Dec 22:48:30 22:50:27 13° 91° (E) 22:52:23 437.675
QB50P1 04 Dec 23:01:12 23:04:09 18° 93° (E) 23:07:02 145.935-145.965
CUBEBUG 1 04 Dec 23:03:23 23:07:42 70° 74° (ENE) 23:12:05 437.445
DUCHIFAT 1 04 Dec 23:05:47 23:08:35 17° 92° (E) 23:11:22 145.980
VELOX 1 04 Dec 23:10:26 23:14:44 56° 72° (ENE) 23:19:05 145.980
Cosmos 2499 04 Dec 23:11:08 23:15:58 16° 75° (ENE) 23:20:54 435.465 / 435.565
POPSAT HIP 1 04 Dec 23:21:57 23:25:42 29° 96° (E) 23:29:23 437.405
UNISAT 6 04 Dec 23:22:06 23:25:56 29° 292° (WNW) 23:29:42 437.425
DX 1 04 Dec 23:28:41 23:32:51 48° 72° (ENE) 23:37:04 434.975-435.025
50 SAT 04 Dec 23:32:14 23:35:44 85° 77° (ENE) 23:39:16 437.505
JAS-2 04 Dec 23:32:24 23:37:31 57° 101° (E) 23:42:49 435.910
UKube-1 04 Dec 23:38:42 23:42:50 46° 71° (ENE) 23:46:58 .
TISAT 1 04 Dec 23:47:24 23:50:01 16° 64° (ENE) 23:52:39 437.305
TIGRISAT 04 Dec 23:53:27 23:56:11 16° 297° (WNW) 23:58:51 435.000
ISS 04 Dec 23:53:59 23:57:04 36° 222° (SW) 00:00:07 145.825
SPROUT 04 Dec 23:54:12 23:58:30 74° 258° (WSW) 00:02:50 437.525
ANTELSAT 04 Dec 23:54:43 23:57:14 15° 297° (WNW) 23:59:42 437.575/2403.000
ESTCUBE 1 04 Dec 23:58:42 00:01:57 19° 267° (W) 00:05:12 437.505/2401.250
BUGSAT 1 05 Dec 00:07:51 00:11:38 31° 97° (E) 00:15:20 437.445
AISAT 05 Dec 00:10:16 00:14:12 31° 264° (W) 00:18:09 437.250
NANOSAT C BR1 05 Dec 00:17:19 00:21:33 68° 285° (WNW) 00:25:43 145.865
QB50P2 05 Dec 00:21:52 00:26:00 52° 287° (WNW) 00:30:06 145.880/145.840
POLYITAN 1 05 Dec 00:22:25 00:26:35 54° 287° (WNW) 00:30:42 437.675
GONETS M04 05 Dec 00:28:04 00:36:18 49° 89° (E) 00:44:32
QB50P1 05 Dec 00:36:05 00:40:03 39° 289° (WNW) 00:43:59 145.935-145.965
SWISSCUBE 05 Dec 00:37:11 00:39:44 15° 61° (ENE) 00:42:18 437.505
DUCHIFAT 1 05 Dec 00:40:29 00:44:27 40° 289° (WNW) 00:48:22 145.980
BEESAT 05 Dec 00:41:25 00:43:56 14° 61° (ENE) 00:46:28 436.000
O/OREOS (USA 219) 05 Dec 00:41:47 00:43:34 12° 50° (NE) 00:45:20 437.305
CUBEBUG 1 05 Dec 00:43:30 00:44:27 11° 271° (W) 00:45:25 437.445
VELOX 1 05 Dec 00:49:21 00:51:33 14° 269° (W) 00:53:46 145.980
POPSAT HIP 1 05 Dec 00:57:54 01:01:20 24° 293° (WNW) 01:04:44 437.405
Cosmos 2499 05 Dec 00:59:05 01:07:35 81° 95° (E) 01:16:30 435.465 / 435.565
PHONESAT 2.4 05 Dec 01:00:58 01:02:59 19° 157° (SSE) 01:05:01 2401.200-2431.200
AUBIESAT-1 05 Dec 01:04:29 01:08:08 31° 63° (ENE) 01:12:02 437.475
ITUPSAT 1 05 Dec 01:06:37 01:10:26 24° 65° (ENE) 01:14:16 437.325
DX 1 05 Dec 01:06:43 01:09:18 15° 268° (W) 01:11:55 434.975-435.025
M-CUBED/EXP-1 PRIME 05 Dec 01:15:12 01:19:07 49° 67° (ENE) 01:23:23 437.505
UKube-1 05 Dec 01:16:26 01:19:06 16° 268° (W) 01:21:46 .
JAS-2 05 Dec 01:18:47 01:22:13 18° 298° (WNW) 01:25:42 435.910
TISAT 1 05 Dec 01:21:10 01:25:16 47° 260° (W) 01:29:24 437.305
Gurwin Techsat 1B 05 Dec 01:22:05 01:26:19 24° 94° (E) 01:30:32 435.225
AO-85 05 Dec 01:25:28 01:28:58 19° 112° (ESE) 01:32:18 145.980
